Time,TemperatureF,DewpointF,PressureIn,WindDirection,WindDirectionDegrees,WindSpeedMPH,WindSpeedGustMPH,Humidity,HourlyPrecipIn,Conditions,Clouds,dailyrainin,SoftwareType,DateUTC
2013-04-05 00:03:00,42.0,22.0,29.93,SSW,202,0.0,0.0,44,0.00,,,0.00,,2013-04-05 04:03:00,
2013-04-05 00:13:00,42.0,22.0,29.93,SSW,202,0.0,0.0,44,0.00,,,0.00,,2013-04-05 04:13:00,
2013-04-05 00:23:00,42.0,22.0,29.93,SSW,202,0.0,0.0,45,0.00,,,0.00,,2013-04-05 04:23:00,
2013-04-05 00:33:00,42.0,23.0,29.93,SSW,202,0.0,0.0,46,0.00,,,0.00,,2013-04-05 04:33:00,
2013-04-05 00:42:00,42.0,23.0,29.93,SSW,202,0.0,0.0,46,0.00,,,0.00,,2013-04-05 04:42:00,
2013-04-05 00:52:00,41.0,22.0,29.92,SSW,202,0.0,0.0,46,0.00,,,0.00,,2013-04-05 04:52:00,
2013-04-05 01:02:00,41.0,22.0,29.92,SSW,202,0.0,0.0,47,0.00,,,0.00,,2013-04-05 05:02:00,
2013-04-05 01:13:00,41.0,22.0,29.92,SSW,202,0.0,0.0,47,0.00,,,0.00,,2013-04-05 05:13:00,
2013-04-05 01:22:00,41.0,22.0,29.91,SSW,202,0.0,0.0,47,0.00,,,0.00,,2013-04-05 05:22:00,
2013-04-05 01:32:00,41.0,22.0,29.91,SSW,202,0.0,0.0,47,0.00,,,0.00,,2013-04-05 05:32:00,
2013-04-05 01:42:00,41.0,22.0,29.91,SSW,202,0.0,0.0,47,0.00,,,0.00,,2013-04-05 05:42:00,
2013-04-05 01:52:00,41.0,22.0,29.91,SSW,202,0.0,0.0,47,0.00,,,0.00,,2013-04-05 05:52:00,
2013-04-05 02:02:00,41.0,23.0,29.91,SSW,202,0.0,0.0,48,0.00,,,0.00,,2013-04-05 06:02:00,
2013-04-05 02:12:00,41.0,23.0,29.91,SSW,202,0.0,0.0,48,0.00,,,0.00,,2013-04-05 06:12:00,
2013-04-05 02:22:00,41.0,23.0,29.90,SSW,202,0.0,0.0,48,0.00,,,0.00,,2013-04-05 06:22:00,
2013-04-05 02:32:00,41.0,23.0,29.89,SSW,202,0.0,0.0,49,0.00,,,0.00,,2013-04-05 06:32:00,
2013-04-05 02:42:00,41.0,23.0,29.89,SSW,202,0.0,0.0,49,0.00,,,0.00,,2013-04-05 06:42:00,
2013-04-05 02:52:00,40.0,22.0,29.89,SSW,202,0.0,0.0,49,0.00,,,0.00,,2013-04-05 06:52:00,
2013-04-05 03:03:00,40.0,22.0,29.89,SSW,202,0.0,0.0,49,0.00,,,0.00,,2013-04-05 07:03:00,
2013-04-05 03:12:00,40.0,22.0,29.89,SSW,202,0.0,0.0,49,0.00,,,0.00,,2013-04-05 07:12:00,
2013-04-05 03:22:00,40.0,23.0,29.89,SSW,202,0.0,0.0,50,0.00,,,0.00,,2013-04-05 07:22:00,
2013-04-05 03:32:00,39.0,22.0,29.88,SSW,202,0.0,0.0,50,0.00,,,0.00,,2013-04-05 07:32:00,
2013-04-05 03:42:00,39.0,22.0,29.88,SSW,202,0.0,0.0,50,0.00,,,0.00,,2013-04-05 07:42:00,
2013-04-05 03:53:00,39.0,22.0,29.88,SSW,202,0.0,0.0,51,0.00,,,0.00,,2013-04-05 07:53:00,
2013-04-05 04:02:00,38.0,22.0,29.88,SSW,202,0.0,0.0,52,0.00,,,0.00,,2013-04-05 08:02:00,
2013-04-05 04:13:00,38.0,22.0,29.88,SSW,202,0.0,0.0,52,0.00,,,0.00,,2013-04-05 08:13:00,
2013-04-05 04:22:00,38.0,22.0,29.88,SSW,202,0.0,0.0,53,0.00,,,0.00,,2013-04-05 08:22:00,
2013-04-05 04:32:00,38.0,22.0,29.88,SSW,202,0.0,0.0,53,0.00,,,0.00,,2013-04-05 08:32:00,
2013-04-05 04:43:00,38.0,22.0,29.88,SSW,202,0.0,0.0,53,0.00,,,0.00,,2013-04-05 08:43:00,
2013-04-05 04:52:00,38.0,23.0,29.89,SSW,202,0.0,0.0,55,0.00,,,0.00,,2013-04-05 08:52:00,
2013-04-05 05:02:00,37.0,23.0,29.89,SSW,202,0.0,0.0,56,0.00,,,0.00,,2013-04-05 09:02:00,
2013-04-05 05:12:00,37.0,23.0,29.89,SSW,202,0.0,0.0,56,0.00,,,0.00,,2013-04-05 09:12:00,
2013-04-05 05:22:00,37.0,23.0,29.89,SSW,202,0.0,0.0,57,0.00,,,0.00,,2013-04-05 09:22:00,
2013-04-05 05:33:00,37.0,24.0,29.90,SSW,202,0.0,0.0,58,0.00,,,0.00,,2013-04-05 09:33:00,
2013-04-05 05:43:00,37.0,24.0,29.90,SSW,202,0.0,0.0,58,0.00,,,0.00,,2013-04-05 09:43:00,
2013-04-05 05:52:00,37.0,24.0,29.90,SSW,202,0.0,0.0,58,0.00,,,0.00,,2013-04-05 09:52:00,
2013-04-05 06:03:00,37.0,24.0,29.91,SSW,202,0.0,0.0,60,0.00,,,0.00,,2013-04-05 10:03:00,
2013-04-05 06:13:00,37.0,24.0,29.91,SSW,202,0.0,0.0,60,0.00,,,0.00,,2013-04-05 10:13:00,
2013-04-05 06:23:00,37.0,25.0,29.91,SSW,202,0.0,0.0,61,0.00,,,0.00,,2013-04-05 10:23:00,
2013-04-05 06:33:00,36.0,24.0,29.90,SSW,202,0.0,0.0,61,0.00,,,0.00,,2013-04-05 10:33:00,
2013-04-05 06:43:00,36.0,24.0,29.90,SSW,202,0.0,0.0,61,0.00,,,0.00,,2013-04-05 10:43:00,
2013-04-05 07:03:00,35.0,24.0,29.91,SSW,202,0.0,0.0,63,0.00,,,0.00,,2013-04-05 11:03:00,
2013-04-05 07:13:00,35.0,24.0,29.91,SSW,202,0.0,0.0,63,0.00,,,0.00,,2013-04-05 11:13:00,
2013-04-05 07:22:00,35.0,24.0,29.91,SSW,202,0.0,0.0,63,0.00,,,0.00,,2013-04-05 11:22:00,
2013-04-05 07:33:00,35.0,24.0,29.92,SSW,202,0.0,0.0,64,0.00,,,0.00,,2013-04-05 11:33:00,
2013-04-05 07:42:00,35.0,24.0,29.92,SSW,202,0.0,0.0,64,0.00,,,0.00,,2013-04-05 11:42:00,
2013-04-05 07:52:00,35.0,24.0,29.92,SSW,202,0.0,0.0,64,0.00,,,0.00,,2013-04-05 11:52:00,
2013-04-05 08:02:00,35.0,24.0,29.92,SSW,202,0.0,0.0,64,0.00,,,0.00,,2013-04-05 12:02:00,
2013-04-05 08:12:00,35.0,24.0,29.92,SSW,202,0.0,0.0,64,0.00,,,0.00,,2013-04-05 12:12:00,
2013-04-05 08:22:00,35.0,24.0,29.91,SSW,202,0.0,0.0,65,0.00,,,0.00,,2013-04-05 12:22:00,
2013-04-05 08:32:00,35.0,25.0,29.91,SSW,202,0.0,0.0,66,0.00,,,0.00,,2013-04-05 12:32:00,
2013-04-05 08:42:00,35.0,25.0,29.91,SSW,202,0.0,0.0,66,0.00,,,0.00,,2013-04-05 12:42:00,
2013-04-05 08:52:00,35.0,25.0,29.91,SSW,202,0.0,0.0,67,0.00,,,0.00,,2013-04-05 12:52:00,
2013-04-05 09:02:00,37.0,28.0,29.91,SSW,202,0.0,0.0,69,0.00,,,0.00,,2013-04-05 13:02:00,
2013-04-05 09:12:00,37.0,28.0,29.91,SSW,202,0.0,0.0,69,0.00,,,0.00,,2013-04-05 13:12:00,
2013-04-05 09:23:00,38.0,29.0,29.91,West,270,0.0,0.0,69,0.00,,,0.00,,2013-04-05 13:23:00,
2013-04-05 09:32:00,40.0,30.0,29.91,WSW,248,0.0,2.0,67,0.00,,,0.00,,2013-04-05 13:32:00,
2013-04-05 09:42:00,40.0,30.0,29.91,WSW,248,0.0,2.0,67,0.00,,,0.00,,2013-04-05 13:42:00,
2013-04-05 09:52:00,42.0,30.0,29.91,NW,315,0.0,1.0,62,0.00,,,0.00,,2013-04-05 13:52:00,
2013-04-05 10:03:00,43.0,30.0,29.91,SSW,213,0.0,2.0,59,0.00,,,0.00,,2013-04-05 14:03:00,
2013-04-05 10:12:00,43.0,30.0,29.91,SSW,213,0.0,2.0,59,0.00,,,0.00,,2013-04-05 14:12:00,
2013-04-05 10:23:00,44.0,30.0,29.91,WNW,292,2.0,6.0,57,0.00,,,0.00,,2013-04-05 14:23:00,
2013-04-05 10:37:00,44.0,29.0,29.91,North,0,0.0,0.0,55,0.00,,,0.00,,2013-04-05 14:37:00,
2013-04-05 10:43:00,44.0,29.0,29.91,North,0,0.0,0.0,55,0.00,,,0.00,,2013-04-05 14:43:00,
2013-04-05 10:52:00,46.0,28.0,29.91,North,0,1.0,5.0,49,0.00,,,0.00,,2013-04-05 14:52:00,
2013-04-05 11:02:00,47.0,28.0,29.91,NW,313,1.0,6.0,48,0.00,,,0.00,,2013-04-05 15:02:00,
2013-04-05 11:13:00,47.0,28.0,29.91,NW,313,1.0,6.0,48,0.00,,,0.00,,2013-04-05 15:13:00,
2013-04-05 11:23:00,49.0,30.0,29.92,NW,305,0.0,7.0,48,0.00,,,0.00,,2013-04-05 15:23:00,
2013-04-05 11:33:00,50.0,29.0,29.92,NNW,346,2.0,8.0,44,0.00,,,0.00,,2013-04-05 15:33:00,
2013-04-05 11:43:00,50.0,29.0,29.92,NNW,346,2.0,8.0,44,0.00,,,0.00,,2013-04-05 15:43:00,
2013-04-05 11:53:00,50.0,28.0,29.92,NNW,339,2.0,9.0,42,0.00,,,0.00,,2013-04-05 15:53:00,
2013-04-05 12:03:00,51.0,29.0,29.92,NNW,338,0.0,7.0,42,0.00,,,0.00,,2013-04-05 16:03:00,
2013-04-05 12:23:00,52.0,28.0,29.92,WNW,285,1.0,7.0,40,0.00,,,0.00,,2013-04-05 16:23:00,
2013-04-05 12:33:00,53.0,28.0,29.92,WNW,297,5.0,10.0,38,0.00,,,0.00,,2013-04-05 16:33:00,
2013-04-05 12:42:00,53.0,28.0,29.92,WNW,297,5.0,10.0,38,0.00,,,0.00,,2013-04-05 16:42:00,
2013-04-05 12:53:00,53.0,28.0,29.91,SSW,203,0.0,6.0,38,0.00,,,0.00,,2013-04-05 16:53:00,
2013-04-05 13:03:00,53.0,28.0,29.91,SW,225,0.0,8.0,38,0.00,,,0.00,,2013-04-05 17:03:00,
2013-04-05 13:13:00,53.0,28.0,29.91,SW,225,0.0,8.0,38,0.00,,,0.00,,2013-04-05 17:13:00,
2013-04-05 13:23:00,54.0,30.0,29.90,NNW,345,4.0,13.0,39,0.00,,,0.00,,2013-04-05 17:23:00,
2013-04-05 13:32:00,53.0,29.0,29.90,NW,319,5.0,12.0,39,0.00,,,0.00,,2013-04-05 17:32:00,
2013-04-05 13:45:00,53.0,29.0,29.90,NW,319,5.0,12.0,39,0.00,,,0.00,,2013-04-05 17:45:00,
2013-04-05 13:52:00,53.0,29.0,29.89,North,359,2.0,8.0,39,0.00,,,0.00,,2013-04-05 17:52:00,
2013-04-05 14:02:00,54.0,29.0,29.89,WNW,290,5.0,9.0,38,0.00,,,0.00,,2013-04-05 18:02:00,
2013-04-05 14:13:00,54.0,29.0,29.89,WNW,290,5.0,9.0,38,0.00,,,0.00,,2013-04-05 18:13:00,
2013-04-05 14:23:00,54.0,28.0,29.89,NNE,30,3.0,18.0,37,0.00,,,0.00,,2013-04-05 18:23:00,
2013-04-05 14:33:00,54.0,29.0,29.88,WNW,295,2.0,8.0,38,0.00,,,0.00,,2013-04-05 18:33:00,
2013-04-05 14:43:00,54.0,29.0,29.88,WNW,295,2.0,8.0,38,0.00,,,0.00,,2013-04-05 18:43:00,
2013-04-05 14:53:00,54.0,29.0,29.88,North,4,8.0,12.0,38,0.00,,,0.00,,2013-04-05 18:53:00,
2013-04-05 15:00:00,55.0,30.0,29.89,NW,311,4.0,10.0,38,0.00,,,0.00,,2013-04-05 19:00:00,
2013-04-05 15:02:00,54.0,29.0,29.89,NW,311,3.0,10.0,38,0.00,,,0.00,,2013-04-05 19:02:00,
2013-04-05 15:13:00,54.0,29.0,29.89,NW,311,3.0,10.0,38,0.00,,,0.00,,2013-04-05 19:13:00,
2013-04-05 15:23:00,55.0,30.0,29.89,NW,311,4.0,10.0,38,0.00,,,0.00,,2013-04-05 19:23:00,
2013-04-05 15:33:00,55.0,30.0,29.89,NW,311,4.0,10.0,38,0.00,,,0.00,,2013-04-05 19:33:00,
2013-04-05 15:42:00,55.0,30.0,29.89,NW,311,4.0,10.0,38,0.00,,,0.00,,2013-04-05 19:42:00,
2013-04-05 15:52:00,55.0,30.0,29.89,NW,311,4.0,10.0,38,0.00,,,0.00,,2013-04-05 19:52:00,
2013-04-05 16:22:00,54.0,30.0,29.88,NW,324,7.0,12.0,39,0.00,,,0.00,,2013-04-05 20:22:00,
2013-04-05 16:33:00,54.0,30.0,29.88,NW,324,7.0,12.0,39,0.00,,,0.00,,2013-04-05 20:33:00,
2013-04-05 16:42:00,54.0,30.0,29.88,NW,324,7.0,12.0,39,0.00,,,0.00,,2013-04-05 20:42:00,
2013-04-05 16:52:00,53.0,28.0,29.88,NW,314,4.0,9.0,38,0.00,,,0.00,,2013-04-05 20:52:00,
2013-04-05 17:03:00,53.0,29.0,29.88,North,9,5.0,9.0,39,0.00,,,0.00,,2013-04-05 21:03:00,
2013-04-05 17:13:00,53.0,29.0,29.88,North,9,5.0,9.0,39,0.00,,,0.00,,2013-04-05 21:13:00,
2013-04-05 17:24:00,53.0,29.0,29.88,North,6,6.0,13.0,39,0.00,,,0.00,,2013-04-05 21:24:00,
2013-04-05 17:33:00,53.0,29.0,29.89,NNW,348,5.0,10.0,39,0.00,,,0.00,,2013-04-05 21:33:00,
2013-04-05 17:43:00,53.0,29.0,29.89,NNW,348,5.0,10.0,39,0.00,,,0.00,,2013-04-05 21:43:00,
2013-04-05 17:55:00,52.0,28.0,29.90,NNW,339,5.0,12.0,40,0.00,,,0.00,,2013-04-05 21:55:00,
2013-04-05 18:03:00,52.0,29.0,29.91,NNW,341,7.0,14.0,41,0.00,,,0.00,,2013-04-05 22:03:00,
2013-04-05 18:13:00,52.0,29.0,29.91,NNW,341,7.0,14.0,41,0.00,,,0.00,,2013-04-05 22:13:00,
2013-04-05 18:23:00,52.0,29.0,29.92,NNW,331,3.0,13.0,41,0.00,,,0.00,,2013-04-05 22:23:00,
2013-04-05 18:33:00,51.0,28.0,29.92,North,358,2.0,7.0,41,0.00,,,0.00,,2013-04-05 22:33:00,
2013-04-05 18:43:00,51.0,28.0,29.92,North,358,2.0,7.0,41,0.00,,,0.00,,2013-04-05 22:43:00,
2013-04-05 18:52:00,51.0,28.0,29.93,NNW,331,2.0,8.0,41,0.00,,,0.00,,2013-04-05 22:52:00,
2013-04-05 19:03:00,50.0,27.0,29.93,North,355,4.0,10.0,40,0.00,,,0.00,,2013-04-05 23:03:00,
2013-04-05 19:12:00,50.0,27.0,29.93,North,355,4.0,10.0,40,0.00,,,0.00,,2013-04-05 23:12:00,
2013-04-05 19:23:00,50.0,27.0,29.94,NW,317,3.0,8.0,40,0.00,,,0.00,,2013-04-05 23:23:00,
2013-04-05 19:33:00,49.0,26.0,29.94,NNW,345,3.0,9.0,40,0.00,,,0.00,,2013-04-05 23:33:00,
2013-04-05 19:42:00,49.0,26.0,29.94,NNW,345,3.0,9.0,40,0.00,,,0.00,,2013-04-05 23:42:00,
2013-04-05 19:52:00,49.0,25.0,29.95,North,353,2.0,8.0,39,0.00,,,0.00,,2013-04-05 23:52:00,
2013-04-05 20:02:00,48.0,25.0,29.95,North,0,3.0,9.0,40,0.00,,,0.00,,2013-04-06 00:02:00,
2013-04-05 20:13:00,48.0,25.0,29.95,North,0,3.0,9.0,40,0.00,,,0.00,,2013-04-06 00:13:00,
2013-04-05 20:23:00,47.0,24.0,29.96,NNW,330,2.0,7.0,40,0.00,,,0.00,,2013-04-06 00:23:00,
2013-04-05 20:33:00,47.0,24.0,29.97,North,355,1.0,3.0,40,0.00,,,0.00,,2013-04-06 00:33:00,
2013-04-05 20:42:00,47.0,24.0,29.97,North,355,1.0,3.0,40,0.00,,,0.00,,2013-04-06 00:42:00,
2013-04-05 20:52:00,46.0,24.0,29.98,North,0,0.0,2.0,42,0.00,,,0.00,,2013-04-06 00:52:00,
2013-04-05 21:02:00,45.0,24.0,29.99,North,8,1.0,6.0,43,0.00,,,0.00,,2013-04-06 01:02:00,
2013-04-05 21:13:00,45.0,24.0,29.99,North,8,1.0,6.0,43,0.00,,,0.00,,2013-04-06 01:13:00,
2013-04-05 21:22:00,44.0,23.0,30.00,NNE,22,0.0,0.0,43,0.00,,,0.00,,2013-04-06 01:22:00,
2013-04-05 21:33:00,44.0,23.0,30.01,NNE,22,0.0,3.0,44,0.00,,,0.00,,2013-04-06 01:33:00,
2013-04-05 21:43:00,44.0,23.0,30.01,NNE,22,0.0,3.0,44,0.00,,,0.00,,2013-04-06 01:43:00,
2013-04-05 21:52:00,43.0,23.0,30.02,North,0,0.0,3.0,44,0.00,,,0.00,,2013-04-06 01:52:00,
2013-04-05 22:02:00,43.0,23.0,30.03,NNW,334,0.0,2.0,44,0.00,,,0.00,,2013-04-06 02:02:00,
2013-04-05 22:12:00,43.0,23.0,30.03,NNW,334,0.0,2.0,44,0.00,,,0.00,,2013-04-06 02:12:00,
2013-04-05 22:22:00,42.0,22.0,30.04,NNE,23,0.0,0.0,45,0.00,,,0.00,,2013-04-06 02:22:00,
2013-04-05 22:32:00,41.0,21.0,30.04,North,3,7.0,12.0,45,0.00,,,0.00,,2013-04-06 02:32:00,
2013-04-05 22:42:00,41.0,21.0,30.04,North,3,7.0,12.0,45,0.00,,,0.00,,2013-04-06 02:42:00,
2013-04-05 22:53:00,40.0,21.0,30.05,North,352,0.0,2.0,46,0.00,,,0.00,,2013-04-06 02:53:00,
2013-04-05 23:03:00,40.0,21.0,30.05,North,2,0.0,2.0,46,0.00,,,0.00,,2013-04-06 03:03:00,
2013-04-05 23:13:00,40.0,21.0,30.05,North,2,0.0,2.0,46,0.00,,,0.00,,2013-04-06 03:13:00,
2013-04-05 23:22:00,39.0,20.0,30.05,NNE,22,0.0,0.0,47,0.00,,,0.00,,2013-04-06 03:22:00,
2013-04-05 23:34:00,38.0,20.0,30.06,NNE,22,0.0,0.0,48,0.00,,,0.00,,2013-04-06 03:34:00,
2013-04-05 23:43:00,38.0,20.0,30.06,NNE,22,0.0,0.0,48,0.00,,,0.00,,2013-04-06 03:43:00,
2013-04-05 23:55:00,37.0,20.0,30.06,North,0,0.0,6.0,49,0.00,,,0.00,,2013-04-06 03:55:00,